When you browse on this site, cookies collect data to enhance your experience and personalize the content and advertising you see.
Visit our Privacy Policy to learn more. By continuing to use the site, you agree to this use of cookies and data.
  • In Hungary
  • List of Countries
  • For 7 days
  • Water Temperature
  • Satellite Maps
  • Weather Map
  • News
  • Weather Widgets
  • user-avatar
    Login

    Hourly Weather Gorbunovka

    Today, 20 November, Tuesday

    Time Temperature Precipitation Wind Pressure Humidity
    00:00 -1°C° 0.1 mm 1 mps 746 mmHg 96%
    01:00 -1°C° 0.1 mm 1 mps 746 mmHg 96%
    02:00 -1°C° 0.1 mm 1 mps 746 mmHg 96%
    03:00 -1°C° 0.1 mm 1 mps 746 mmHg 96%
    04:00 -1°C° 0.1 mm 1 mps 746 mmHg 96%
    05:00 -1°C° 0.1 mm 1 mps 745 mmHg 97%
    06:00 -1°C° 0.1 mm 1 mps 745 mmHg 97%
    07:00 -1°C° 0.1 mm 1 mps 745 mmHg 97%
    08:00 -1°C° 0.1 mm 1 mps 745 mmHg 96%
    09:00 -1°C° 0.1 mm 1 mps 745 mmHg 95%
    10:00 -1°C° 0.1 mm 1 mps 745 mmHg 95%
    11:00 -1°C° 0 mm 1 mps 745 mmHg 94%
    12:00 0°C° 0 mm 1 mps 745 mmHg 92%
    13:00 0°C° 0 mm 1 mps 744 mmHg 91%
    14:00 0°C° 0 mm 1 mps 744 mmHg 92%
    15:00 0°C° 0 mm 1 mps 744 mmHg 93%
    16:00 -1°C° 0 mm 1 mps 744 mmHg 94%
    17:00 -3°C° 0 mm 2 mps 744 mmHg 94%
    18:00 -3°C° 0 mm 2 mps 743 mmHg 94%
    19:00 -3°C° 0 mm 2 mps 743 mmHg 94%
    20:00 -3°C° 0 mm 2 mps 743 mmHg 94%
    21:00 -3°C° 0 mm 2 mps 742 mmHg 93%
    22:00 -4°C° 0 mm 2 mps 742 mmHg 93%
    23:00 -5°C° 0 mm 3 mps 742 mmHg 92%

    Tomorrow, 21 November, Wednesday

    Time Temperature Precipitation Wind Pressure Humidity
    00:00 -5°C° 0 mm 3 mps 741 mmHg 90%
    01:00 -5°C° 0 mm 3 mps 741 mmHg 89%
    02:00 -5°C° 0 mm 4 mps 740 mmHg 87%
    03:00 -5°C° 0 mm 4 mps 739 mmHg 84%
    04:00 -7°C° 0 mm 5 mps 739 mmHg 82%
    05:00 -7°C° 0 mm 5 mps 738 mmHg 83%
    06:00 -7°C° 0 mm 5 mps 737 mmHg 84%
    07:00 -8°C° 0 mm 6 mps 737 mmHg 86%
    08:00 -8°C° 0.3 mm 6 mps 736 mmHg 87%
    09:00 -8°C° 0.3 mm 6 mps 735 mmHg 88%
    10:00 -8°C° 0.3 mm 7 mps 735 mmHg 89%
    11:00 -8°C° 0.4 mm 7 mps 734 mmHg 88%
    12:00 -7°C° 0.4 mm 7 mps 733 mmHg 87%
    13:00 -7°C° 0.4 mm 7 mps 732 mmHg 87%
    14:00 -6°C° 0.2 mm 6 mps 732 mmHg 87%
    15:00 -6°C° 0.2 mm 6 mps 731 mmHg 88%
    16:00 -6°C° 0.2 mm 6 mps 731 mmHg 89%
    17:00 -6°C° 0.2 mm 6 mps 731 mmHg 89%
    18:00 -7°C° 0.2 mm 7 mps 730 mmHg 88%
    19:00 -7°C° 0.2 mm 7 mps 730 mmHg 88%
    20:00 -8°C° 0.1 mm 7 mps 730 mmHg 86%
    21:00 -8°C° 0.1 mm 7 mps 730 mmHg 85%
    22:00 -9°C° 0.1 mm 7 mps 730 mmHg 83%
    23:00 -9°C° 0.1 mm 7 mps 731 mmHg 83%

    Day after tomorrow, 22 November, Thursday

    Time Temperature Precipitation Wind Pressure Humidity
    00:00 -9°C° 0.1 mm 7 mps 731 mmHg 84%
    01:00 -9°C° 0.1 mm 7 mps 731 mmHg 84%
    02:00 -10°C° 0 mm 6 mps 731 mmHg 85%
    03:00 -10°C° 0 mm 6 mps 731 mmHg 86%
    04:00 -11°C° 0 mm 5 mps 732 mmHg 87%
    05:00 -11°C° 0.1 mm 5 mps 732 mmHg 87%
    06:00 -11°C° 0.1 mm 6 mps 732 mmHg 87%
    07:00 -11°C° 0.1 mm 6 mps 732 mmHg 86%
    08:00 -11°C° 0 mm 6 mps 732 mmHg 87%
    09:00 -12°C° 0 mm 5 mps 732 mmHg 88%
    10:00 -12°C° 0 mm 5 mps 732 mmHg 88%
    11:00 -11°C° 0 mm 5 mps 732 mmHg 87%
    12:00 -11°C° 0 mm 6 mps 731 mmHg 85%
    13:00 -10°C° 0 mm 6 mps 731 mmHg 84%
    14:00 -10°C° 0.1 mm 6 mps 730 mmHg 86%
    15:00 -10°C° 0.1 mm 6 mps 730 mmHg 87%
    16:00 -10°C° 0.1 mm 6 mps 729 mmHg 89%
    17:00 -10°C° 0.4 mm 6 mps 728 mmHg 89%
    18:00 -9°C° 0.4 mm 6 mps 727 mmHg 90%
    19:00 -9°C° 0.4 mm 7 mps 726 mmHg 91%
    20:00 -9°C° 0.3 mm 7 mps 726 mmHg 91%
    21:00 -8°C° 0.3 mm 7 mps 725 mmHg 91%
    22:00 -8°C° 0.3 mm 6 mps 725 mmHg 90%
    23:00 -8°C° 0.1 mm 6 mps 725 mmHg 91%

    23 November, Friday

    Time Temperature Precipitation Wind Pressure Humidity
    00:00 -8°C° 0.1 mm 5 mps 725 mmHg 91%
    01:00 -8°C° 0.1 mm 5 mps 725 mmHg 91%
    02:00 -10°C° 0.1 mm 5 mps 725 mmHg 92%
    03:00 -10°C° 0.1 mm 5 mps 726 mmHg 92%
    04:00 -11°C° 0.1 mm 5 mps 727 mmHg 92%
    05:00 -12°C° 0.1 mm 5 mps 728 mmHg 88%
    06:00 -14°C° 0.1 mm 6 mps 729 mmHg 84%
    07:00 -15°C° 0.1 mm 7 mps 730 mmHg 81%
    08:00 -15°C° 0 mm 6 mps 731 mmHg 80%
    09:00 -16°C° 0 mm 6 mps 732 mmHg 80%
    10:00 -16°C° 0 mm 6 mps 733 mmHg 79%
    11:00 -15°C° 0 mm 5 mps 734 mmHg 79%
    12:00 -15°C° 0 mm 5 mps 735 mmHg 80%
    13:00 -15°C° 0 mm 5 mps 736 mmHg 80%
    14:00 -15°C° 0 mm 4 mps 736 mmHg 83%
    15:00 -15°C° 0 mm 4 mps 737 mmHg 86%
    16:00 -16°C° 0 mm 4 mps 738 mmHg 90%
    17:00 -16°C° 0 mm 4 mps 738 mmHg 91%
    18:00 -16°C° 0 mm 4 mps 738 mmHg 92%
    19:00 -16°C° 0 mm 4 mps 739 mmHg 93%
    20:00 -16°C° 0 mm 4 mps 739 mmHg 93%
    21:00 -16°C° 0 mm 4 mps 740 mmHg 93%
    22:00 -15°C° 0 mm 3 mps 740 mmHg 93%
    23:00 -16°C° 0 mm 4 mps 740 mmHg 94%

    24 November, Saturday

    Time Temperature Precipitation Wind Pressure Humidity
    00:00 -16°C° 0 mm 4 mps 740 mmHg 94%
    01:00 -16°C° 0 mm 4 mps 741 mmHg 94%
    02:00 -16°C° 0 mm 4 mps 741 mmHg 94%
    03:00 -15°C° 0 mm 4 mps 741 mmHg 94%
    04:00 -15°C° 0 mm 5 mps 741 mmHg 94%
    05:00 -15°C° 0 mm 5 mps 741 mmHg 93%
    06:00 -15°C° 0 mm 5 mps 740 mmHg 91%
    07:00 -15°C° 0 mm 6 mps 740 mmHg 90%
    08:00 -15°C° 0 mm 6 mps 740 mmHg 89%
    09:00 -15°C° 0 mm 7 mps 740 mmHg 89%
    10:00 -14°C° 0 mm 7 mps 739 mmHg 88%
    11:00 -15°C° 0 mm 8 mps 739 mmHg 87%
    12:00 -13°C° 0 mm 8 mps 738 mmHg 85%
    13:00 -12°C° 0 mm 8 mps 738 mmHg 84%
    14:00 -12°C° 0.1 mm 9 mps 737 mmHg 84%
    15:00 -11°C° 0.1 mm 9 mps 737 mmHg 84%
    16:00 -11°C° 0.1 mm 9 mps 736 mmHg 84%
    17:00 -11°C° 0.1 mm 9 mps 736 mmHg 84%
    18:00 -10°C° 0.1 mm 9 mps 736 mmHg 84%
    19:00 -10°C° 0.1 mm 9 mps 735 mmHg 84%
    20:00 -10°C° 0.1 mm 9 mps 735 mmHg 84%
    21:00 -9°C° 0.1 mm 9 mps 735 mmHg 85%
    22:00 -9°C° 0.1 mm 9 mps 735 mmHg 86%
    23:00 -9°C° 0.1 mm 9 mps 735 mmHg 86%

    25 November, Sunday

    Time Temperature Precipitation Wind Pressure Humidity
    00:00 -9°C° 0.1 mm 9 mps 735 mmHg 86%
    01:00 -7°C° 0.1 mm 8 mps 736 mmHg 87%
    02:00 -8°C° 0 mm 8 mps 736 mmHg 87%
    03:00 -8°C° 0 mm 8 mps 737 mmHg 88%
    04:00 -8°C° 0 mm 8 mps 737 mmHg 88%
    05:00 -8°C° 0 mm 7 mps 737 mmHg 88%
    06:00 -8°C° 0 mm 7 mps 738 mmHg 88%
    07:00 -8°C° 0 mm 7 mps 738 mmHg 87%
    08:00 -8°C° 0 mm 6 mps 738 mmHg 87%
    09:00 -8°C° 0 mm 6 mps 739 mmHg 87%
    10:00 -8°C° 0 mm 6 mps 739 mmHg 86%
    11:00 -8°C° 0 mm 6 mps 739 mmHg 85%
    12:00 -8°C° 0 mm 6 mps 739 mmHg 85%
    13:00 -6°C° 0 mm 6 mps 740 mmHg 84%
    14:00 -8°C° 0 mm 6 mps 740 mmHg 84%
    15:00 -7°C° 0 mm 5 mps 740 mmHg 85%
    16:00 -7°C° 0 mm 5 mps 740 mmHg 85%
    17:00 -7°C° 0 mm 5 mps 740 mmHg 85%
    18:00 -7°C° 0 mm 5 mps 740 mmHg 86%
    19:00 -8°C° 0 mm 4 mps 740 mmHg 86%
    20:00 -8°C° 0 mm 4 mps 740 mmHg 87%
    21:00 -8°C° 0 mm 4 mps 740 mmHg 88%
    22:00 -7°C° 0 mm 3 mps 740 mmHg 89%
    23:00 -7°C° 0 mm 3 mps 740 mmHg 90%
    Show more